Overview Statistics Trail Chart Weather Telemetry Raw packets
 

This is the latest recevied weather packets stored in our database for station/object K7CTM. If no packets are shown the sender has not sent any weather packets the latest 10 day(s).

<< 17 18 19 20 21 22 23 >>
Time Temp. Humidity Pressure Rain* Wind** Luminosity Snow
1788496713 20.56° C 30% 1020.7 hPa 0 mm - 0 W/m² -
1788496409 21.11° C 30% 1020.8 hPa 0 mm - 0 W/m² -
1788496110 21.11° C 30% 1020.6 hPa 0 mm - 0 W/m² -
1788495806 21.11° C 29% 1020.8 hPa 0 mm - 0 W/m² -
1788495506 21.11° C 29% 1020.8 hPa 0 mm - 0 W/m² -
1788495202 21.67° C 29% 1020.8 hPa 0 mm - 0 W/m² -
1788494898 21.67° C 29% 1020.8 hPa 0 mm - 0 W/m² -
1788494593 22.22° C 28% 1021 hPa 0 mm - 0 W/m² -
1788494289 22.78° C 27% 1021.1 hPa 0 mm - 0 W/m² -
1788493985 22.78° C 26% 1021.1 hPa 0 mm - 0 W/m² -
1788493683 22.22° C 27% 1021.1 hPa 0 mm - 0 W/m² -
1788493379 22.78° C 27% 1021.2 hPa 0 mm - 0 W/m² -
1788493075 22.78° C 27% 1021.1 hPa 0 mm - 0 W/m² -
1788492771 22.22° C 28% 1021.3 hPa 0 mm - 0 W/m² -
1788492467 22.78° C 27% 1021.3 hPa 0 mm - 0 W/m² -
1788492166 23.33° C 26% 1021.3 hPa 0 mm - 0 W/m² -
1788491861 22.78° C 27% 1021.1 hPa 0 mm - 0 W/m² -
1788491557 22.78° C 27% 1021.1 hPa 0 mm - 0 W/m² -
1788491252 23.89° C 26% 1021 hPa 0 mm - 0 W/m² -
1788490947 23.89° C 25% 1020.7 hPa 0 mm - 0 W/m² -
1788490644 22.78° C 25% 1021 hPa 0 mm - 0 W/m² -
1788490338 22.78° C 26% 1021.1 hPa 0 mm - 0 W/m² -
1788490034 22.78° C 27% 1020.8 hPa 0 mm - 0 W/m² -
1788489729 23.33° C 26% 1020.8 hPa 0 mm - 0 W/m² -
1788489425 23.33° C 26% 1020.6 hPa 0 mm - 0 W/m² -

* Rain latest hour (hover to see other rain measurements)
** Current wind speed in m/s (hover to see current wind gust speed)